Regional Weather Roundup
Issued by NWS

Home | Current Version | Previous Version | Graphics & Text | Print | Product List | Glossary On
Versions: 1 2 3 4 5 6 7 8 9 10 11 12 13 14 15 16 17 18 19 20 21 22 23 24 25 26 27 28 29 30 31 32 33 34 35 36 37 38 39 40 41 42 43 44 45 46 47 48 49 50
000
ASUS43 KMPX 270610
RWRMN
WEATHER ROUNDUP FOR MINNESOTA
NATIONAL WEATHER SERVICE TWIN CITIES/CHANHASSEN MN
100 AM CDT SAT AUG 27 2016


NOTE: "FAIR" INDICATES FEW OR NO CLOUDS BELOW 12,000 FEET WITH NO
SIGNIFICANT WEATHER AND/OR OBSTRUCTIONS TO VISIBILITY. N/A MEANS
CURRENT SKY AND/OR WEATHER CONDITIONS ARE NOT AVAILABLE.

MNZ060>063-068>070-270700-
   Twin Cities Metro

CITY           SKY/WX    TMP DP  RH WIND       PRES   REMARKS
TWIN CITIES    CLOUDY    65  55  70 SE7       30.10S
6HR MIN TEMP:  64; 6HR MAX TEMP:  70;

ST PAUL        FAIR      64  57  78 SE5       30.10F
CRYSTAL        FAIR      62  56  80 CALM      30.09S
BLAINE         FAIR      63  57  82 CALM      30.11S
LAKEVILLE      MOCLDY    61  61 100 CALM      30.10S
EDEN PRAIRIE   MOCLDY    65  56  72 CALM      30.09S
6HR MIN TEMP:  64; 6HR MAX TEMP:  70;

LAKEVILLE      MOCLDY    61  61 100 CALM      30.10S
SOUTH ST PAUL  FAIR      64  57  78 CALM      30.10S
LAKE ELMO      FAIR      63  59  88 CALM      30.11F
$$
MNZ001>005-007-008-013>017-022>024-027-028-270700-
   Northwest Minnesota

CITY           SKY/WX    TMP DP  RH WIND       PRES   REMARKS
BEMIDJI        CLOUDY    61  54  76 S3        30.08S
HALLOCK        FAIR      54  50  87 S6        29.99F
ROSEAU         FAIR      54  48  82 S7        30.03S
WARROAD        FAIR      57  54  88 S3        30.03S
THIEF RVR FALL FAIR      58  53  84 S7        30.05F
CROOKSTON      FAIR      54  52  94 S5        30.04
FOSSTON        CLOUDY    57  54  88 SE3       30.07S
DETROIT LAKES  MOCLDY    63  55  77 S6        30.08S
MOORHEAD       CLOUDY    63  57  82 SE3       30.05S
PARK RAPIDS    MOCLDY    62  54  74 S6        30.08S
MAHNOMEN       MOCLDY    59  55  85 SE5       30.06S
$$
MNZ006-009>011-018-025>026-270700-
   North Central Minnesota

CITY           SKY/WX    TMP DP  RH WIND       PRES   REMARKS
BAUDETTE       CLOUDY    61  53  75 SW6       30.04S
FLAG ISLAND    CLOUDY    64  54  68 CALM      30.00S HAZE
INTL FALLS     CLOUDY    59  52  77 CALM      30.06S
6HR MIN TEMP:  52; 6HR MAX TEMP:  69;

WASKISH        CLOUDY    61  55  82 CALM      30.07S
BIG FORK       CLOUDY    57  54  88 CALM      30.09S
LONGVILLE      MOCLDY    61  55  82 S3        30.10S
GRAND RAPIDS   MOCLDY    60  55  83 S6        30.12S
CRANE LAKE     FAIR      54  54 100 SE2       30.10S
ORR            MOCLDY    57  50  77 CALM      30.07S
COOK           MOCLDY    59  54  82 CALM      30.10S
WALKER         CLOUDY    60  54  78 CALM      30.09R
$$
MNZ012-019>021-037-270700-
   Northeast Minnesota

CITY           SKY/WX    TMP DP  RH WIND       PRES   REMARKS
DULUTH         FAIR      61  54  77 SW6       30.13S
6HR MIN TEMP:  60; 6HR MAX TEMP:  69;

ELY            FAIR      57  52  82 CALM      30.12S
HIBBING        CLOUDY    52  51  97 CALM      30.11S
EVELETH        FAIR      54  53  95 CALM      30.13S
DULUTH HARBOR  FAIR      63  55  77 CALM      30.12F
TWO HARBORS    FAIR      57  52  82 CALM      30.11F
SILVER BAY     FAIR      52  52 100 CALM      30.11F
GRAND MARAIS     N/A     56  53  90 NW6       30.13F
G MARAIS ARPRT FAIR      48  45  87 CALM      30.17S
$$
MNZ029>031-032-039>041-046>048-054>057-064-270700-
   West Central Minnesota

CITY           SKY/WX    TMP DP  RH WIND       PRES   REMARKS
FERGUS FALLS   CLOUDY    61  55  82 S7        30.07F
WHEATON        CLOUDY    63  59  88 SE5       30.06F
MORRIS         FAIR      63  57  82 SE5       30.05F
ALEXANDRIA     CLOUDY    62  56  80 S8        30.09F
ELBOW LAKE     MOCLDY    60  57  89 E6        30.07S
WADENA         FAIR      59  54  82 S3        30.08S
GLENWOOD       FAIR      61  57  88 S6        30.09F
APPLETON       LGT RAIN  63  57  82 SE7       30.05F
BENSON         FAIR      61  55  82 S5        30.07F
ORTONVILLE     MOCLDY    63  57  82 CALM      30.05F
MADISON        FAIR      63  59  88 SE6       30.06F
WILLMAR        FAIR      63  57  82 SE3       30.10F
$$
MNZ033>034-036-042>043-049>051-058-059-270700-
   Central Minnesota

CITY           SKY/WX    TMP DP  RH WIND       PRES   REMARKS
ST CLOUD       FAIR      60  58  92 SE3       30.10F
6HR MIN TEMP:  58; 6HR MAX TEMP:  69;

SAUK CENTRE    CLOUDY    59  56  90 SE3       30.09F
PAYNESVILLE    FAIR      63  56  80 SE5       30.09F
AITKIN         FAIR      59  54  82 CALM      30.10S
PINE RIVER     CLOUDY    57  55  94 CALM      30.12F
BRAINERD       FAIR      59  55  87 S3        30.10F
STAPLES        CLOUDY    59  54  82 CALM      30.09F
LONG PRAIRIE   CLOUDY    59  55  88 CALM      30.10S
LITTLE FALLS   FAIR      59  54  82 SE3       30.10F
LITCHFIELD     FAIR      63  57  82 SE5       30.10F
BUFFALO        FAIR      60  56  85 CALM      30.11F
MAPLE LAKE     FAIR      61  59  91 CALM      30.11F
HUTCHINSON     MOCLDY    61  59  94 CALM      30.11F
$$
MNZ037-044-045-052-053-270700-
   East Central Minnesota

CITY           SKY/WX    TMP DP  RH WIND       PRES   REMARKS
PRINCETON      FAIR      61  57  88 CALM      30.11F
MORA           FAIR      54  52  94 CALM      30.14S
CAMBRIDGE      FAIR      59  52  77 CALM      30.10F
RUSH CITY      FAIR      56  55  95 CALM      30.12S
MOOSE LAKE     FAIR      54  52  94 CALM      30.11F
HINCKLEY       FAIR      54  54 100 CALM      30.12F
CLOQUET        FAIR      57  54  88 CALM      30.13S
MCGREGOR       FAIR      57  54  88 CALM      30.12S
$$
MNZ071>073-080-081-089-090-097-098-270700-
   Southwest Minnesota

CITY           SKY/WX    TMP DP  RH WIND       PRES   REMARKS
MONTEVIDEO     FAIR      63  57  82 S5        30.09F
GRANITE FALLS  CLOUDY    63  59  87 SE6       30.09F
CANBY          LGT RAIN  62  60  91 E3        30.07F
REDWOOD FALLS  FAIR      61  58  90 E3        30.08F
OLIVIA         CLOUDY    61  55  82 SE5       30.08F
PIPESTONE      CLOUDY    63  59  88 SE8       30.08F
WINDOM         CLOUDY    63  57  82 SE5       30.09F
WORTHINGTON    CLOUDY    60  59  96 E3        30.09F
JACKSON          N/A     63  55  77 SE6       30.10S
TRACY          CLOUDY    63  59  88 S6        30.08F
SLAYTON        CLOUDY    61  57  88 SE7       30.09F
$$
MNZ065>067-074>077-082>085-091>093-270700-
   South Central Minnesota

CITY           SKY/WX    TMP DP  RH WIND       PRES   REMARKS
MANKATO        CLOUDY    64  57  77 SE7       30.09F
NEW ULM          N/A     63  57  82 CALM      30.09F
ST JAMES       CLOUDY    57  55  94 CALM      30.10F
FAIRMONT       CLOUDY    61  58  90 SE5       30.09F
GLENCOE        CLOUDY    61  60  97 CALM      30.10S
FARIBAULT      CLOUDY    63  59  88 SE3       30.10F
OWATONNA       FAIR      63  57  82 SE5       30.11S
WASECA         CLOUDY    59  55  88 E5        30.11S
ALBERT LEA     CLOUDY    64  61  88 SE8       30.11S
$$
MNZ078>079-086>088-094>096-270700-
   Southeast Minnesota

CITY           SKY/WX    TMP DP  RH WIND       PRES   REMARKS
ROCHESTER      FAIR      60  59  96 SE6       30.13F
6HR MIN TEMP:  60; 6HR MAX TEMP:  67; 6HR PCP: TRACE;

RED WING       FAIR      64  57  77 E3        30.09F
STANTON        CLOUDY    64  57  77 SE5       30.09F
DODGE CENTER   FAIR      61  57  88 SE8       30.11F
WINONA         FAIR      63  61  94 SE3       30.13S
AUSTIN         LGT RAIN  63  59  88 SE5       30.12S
PRESTON        FAIR      61  58  92 SE6       30.14S
$$
ABBREVIATIONS USED IN REMARKS
   TC - TEMPERATURES IN CELSIUS
  WCI - WIND CHILL INDEX
   HX - HEAT INDEX
  VSB - VISIBILITY
$$




USA.gov is the U.S. government's official web portal to all federal, state and local government web resources and services.